Time,TemperatureF,DewpointF,PressureIn,WindDirection,WindDirectionDegrees,WindSpeedMPH,WindSpeedGustMPH,Humidity,HourlyPrecipIn,Conditions,Clouds,dailyrainin,SoftwareType,DateUTC
2013-05-27 00:02:00,61.0,58.0,30.12,ESE,104,0.0,-999.0,91,-99.99,,,0.00,,2013-05-27 05:02:00,
2013-05-27 00:12:00,61.0,58.0,30.12,ESE,104,0.0,-999.0,91,-99.99,,,0.00,,2013-05-27 05:12:00,
2013-05-27 00:22:00,61.0,58.0,30.12,ESE,104,0.0,-999.0,91,-99.99,,,0.00,,2013-05-27 05:22:00,
2013-05-27 00:32:00,61.0,59.0,30.12,ESE,104,0.0,-999.0,92,-99.99,,,0.00,,2013-05-27 05:32:00,
2013-05-27 00:42:00,61.0,59.0,30.12,ESE,104,0.0,-999.0,92,-99.99,,,0.00,,2013-05-27 05:42:00,
2013-05-27 00:52:00,61.0,59.0,30.12,ESE,104,1.0,-999.0,92,-99.99,,,0.00,,2013-05-27 05:52:00,
2013-05-27 01:01:00,61.0,59.0,30.12,ESE,104,0.0,-999.0,92,-99.99,,,0.00,,2013-05-27 06:01:00,
2013-05-27 01:11:00,61.0,59.0,30.12,ESE,104,0.0,-999.0,92,-99.99,,,0.00,,2013-05-27 06:11:00,
2013-05-27 01:21:00,60.0,58.0,30.11,ESE,104,0.0,-999.0,93,-99.99,,,0.00,,2013-05-27 06:21:00,
2013-05-27 01:32:00,60.0,58.0,30.11,ESE,104,0.0,-999.0,93,-99.99,,,0.00,,2013-05-27 06:32:00,
2013-05-27 01:42:00,60.0,58.0,30.11,ESE,104,0.0,-999.0,94,-99.99,,,0.00,,2013-05-27 06:42:00,
2013-05-27 01:52:00,60.0,58.0,30.11,ESE,104,0.0,-999.0,94,-99.99,,,0.00,,2013-05-27 06:52:00,
2013-05-27 02:02:00,60.0,58.0,30.11,ESE,104,0.0,-999.0,94,-99.99,,,0.00,,2013-05-27 07:02:00,
2013-05-27 02:11:00,59.0,57.0,30.11,ESE,104,0.0,-999.0,94,-99.99,,,0.00,,2013-05-27 07:11:00,
2013-05-27 02:21:00,59.0,57.0,30.11,ESE,104,0.0,-999.0,94,-99.99,,,0.00,,2013-05-27 07:21:00,
2013-05-27 02:32:00,59.0,58.0,30.11,ESE,104,0.0,-999.0,95,-99.99,,,0.00,,2013-05-27 07:32:00,
2013-05-27 02:42:00,59.0,58.0,30.11,ESE,104,0.0,-999.0,95,-99.99,,,0.00,,2013-05-27 07:42:00,
2013-05-27 02:52:00,59.0,58.0,30.11,ESE,104,0.0,-999.0,95,-99.99,,,0.00,,2013-05-27 07:52:00,
2013-05-27 03:02:00,59.0,58.0,30.11,ESE,104,0.0,-999.0,95,-99.99,,,0.00,,2013-05-27 08:02:00,
2013-05-27 03:11:00,59.0,58.0,30.11,ESE,104,0.0,-999.0,95,-99.99,,,0.00,,2013-05-27 08:11:00,
2013-05-27 03:22:00,59.0,58.0,30.12,ESE,104,0.0,-999.0,96,-99.99,,,0.00,,2013-05-27 08:22:00,
2013-05-27 03:32:00,58.0,57.0,30.12,ESE,104,0.0,-999.0,96,-99.99,,,0.00,,2013-05-27 08:32:00,
2013-05-27 03:42:00,58.0,57.0,30.12,ESE,104,0.0,-999.0,96,-99.99,,,0.00,,2013-05-27 08:42:00,
2013-05-27 03:52:00,58.0,57.0,30.11,ESE,104,0.0,-999.0,96,-99.99,,,0.00,,2013-05-27 08:52:00,
2013-05-27 04:02:00,58.0,57.0,30.11,ESE,104,0.0,-999.0,97,-99.99,,,0.00,,2013-05-27 09:02:00,
2013-05-27 04:11:00,58.0,57.0,30.12,ESE,104,0.0,-999.0,97,-99.99,,,0.00,,2013-05-27 09:11:00,
2013-05-27 04:21:00,58.0,57.0,30.12,ESE,104,0.0,-999.0,97,-99.99,,,0.00,,2013-05-27 09:21:00,
2013-05-27 04:33:00,58.0,57.0,30.12,ESE,104,0.0,-999.0,97,-99.99,,,0.00,,2013-05-27 09:33:00,
2013-05-27 04:42:00,58.0,57.0,30.12,ESE,104,0.0,-999.0,97,-99.99,,,0.00,,2013-05-27 09:42:00,
2013-05-27 04:52:00,58.0,57.0,30.12,ESE,104,0.0,-999.0,97,-99.99,,,0.00,,2013-05-27 09:52:00,
2013-05-27 05:02:00,58.0,57.0,30.12,ESE,104,0.0,-999.0,97,-99.99,,,0.00,,2013-05-27 10:02:00,
2013-05-27 05:12:00,58.0,57.0,30.12,ESE,104,0.0,-999.0,97,-99.99,,,0.00,,2013-05-27 10:12:00,
2013-05-27 05:22:00,58.0,57.0,30.12,ESE,104,0.0,-999.0,97,-99.99,,,0.00,,2013-05-27 10:22:00,
2013-05-27 05:32:00,58.0,57.0,30.13,ESE,104,0.0,-999.0,97,-99.99,,,0.00,,2013-05-27 10:32:00,
2013-05-27 05:42:00,58.0,57.0,30.13,ESE,104,0.0,-999.0,97,-99.99,,,0.00,,2013-05-27 10:42:00,
2013-05-27 05:52:00,59.0,58.0,30.14,ESE,104,1.0,-999.0,98,-99.99,,,0.00,,2013-05-27 10:52:00,
2013-05-27 06:02:00,59.0,58.0,30.14,ESE,102,3.0,-999.0,97,-99.99,,,0.00,,2013-05-27 11:02:00,
2013-05-27 06:11:00,59.0,58.0,30.14,ESE,102,3.0,-999.0,97,-99.99,,,0.00,,2013-05-27 11:11:00,
2013-05-27 06:22:00,60.0,59.0,30.15,ESE,102,2.0,-999.0,96,-99.99,,,0.00,,2013-05-27 11:22:00,
2013-05-27 06:32:00,61.0,60.0,30.15,ESE,102,2.0,-999.0,95,-99.99,,,0.00,,2013-05-27 11:32:00,
2013-05-27 06:42:00,61.0,60.0,30.15,ESE,102,2.0,-999.0,95,-99.99,,,0.00,,2013-05-27 11:42:00,
2013-05-27 06:52:00,62.0,60.0,30.15,ESE,106,2.0,-999.0,92,-99.99,,,0.00,,2013-05-27 11:52:00,
2013-05-27 07:01:00,64.0,61.0,30.15,SE,130,3.0,-999.0,89,-99.99,,,0.00,,2013-05-27 12:01:00,
2013-05-27 07:11:00,64.0,61.0,30.15,SE,130,3.0,-999.0,89,-99.99,,,0.00,,2013-05-27 12:11:00,
2013-05-27 07:21:00,65.0,62.0,30.16,SSW,193,0.0,-999.0,89,-99.99,,,0.00,,2013-05-27 12:21:00,
2013-05-27 07:32:00,66.0,62.0,30.16,SE,125,2.0,-999.0,86,-99.99,,,0.00,,2013-05-27 12:32:00,
2013-05-27 07:42:00,66.0,62.0,30.16,SE,125,2.0,-999.0,86,-99.99,,,0.00,,2013-05-27 12:42:00,
2013-05-27 07:52:00,67.0,62.0,30.15,SE,131,1.0,-999.0,85,-99.99,,,0.00,,2013-05-27 12:52:00,
2013-05-27 08:01:00,67.0,62.0,30.15,ESE,119,4.0,-999.0,84,-99.99,,,0.00,,2013-05-27 13:01:00,
2013-05-27 08:11:00,67.0,62.0,30.15,ESE,119,4.0,-999.0,84,-99.99,,,0.00,,2013-05-27 13:11:00,
2013-05-27 08:21:00,68.0,63.0,30.14,ESE,122,3.0,-999.0,84,-99.99,,,0.00,,2013-05-27 13:21:00,
2013-05-27 08:32:00,71.0,64.0,30.14,SE,129,5.0,-999.0,79,-99.99,,,0.00,,2013-05-27 13:32:00,
2013-05-27 08:42:00,71.0,64.0,30.14,SE,129,5.0,-999.0,79,-99.99,,,0.00,,2013-05-27 13:42:00,
2013-05-27 08:52:00,72.0,64.0,30.13,SE,145,5.0,-999.0,76,-99.99,,,0.00,,2013-05-27 13:52:00,
2013-05-27 09:01:00,73.0,64.0,30.13,SE,144,4.0,-999.0,74,-99.99,,,0.00,,2013-05-27 14:01:00,
2013-05-27 09:11:00,73.0,64.0,30.13,SE,144,4.0,-999.0,74,-99.99,,,0.00,,2013-05-27 14:11:00,
2013-05-27 09:21:00,75.0,66.0,30.11,SE,124,3.0,-999.0,73,-99.99,,,0.00,,2013-05-27 14:21:00,
2013-05-27 09:32:00,75.0,66.0,30.11,SE,124,3.0,-999.0,73,-99.99,,,0.00,,2013-05-27 14:32:00,
2013-05-27 09:42:00,75.0,66.0,30.11,SE,124,3.0,-999.0,73,-99.99,,,0.00,,2013-05-27 14:42:00,
2013-05-27 09:52:00,77.0,65.0,30.09,SE,139,4.0,-999.0,67,-99.99,,,0.00,,2013-05-27 14:52:00,
2013-05-27 10:01:00,79.0,68.0,30.09,South,179,3.0,-999.0,68,-99.99,,,0.00,,2013-05-27 15:01:00,
2013-05-27 10:11:00,80.0,66.0,30.08,South,183,5.0,-999.0,63,-99.99,,,0.00,,2013-05-27 15:11:00,
2013-05-27 10:21:00,80.0,66.0,30.08,South,183,5.0,-999.0,63,-99.99,,,0.00,,2013-05-27 15:21:00,
2013-05-27 10:33:00,81.0,65.0,30.07,SSW,206,3.0,-999.0,59,-99.99,,,0.00,,2013-05-27 15:33:00,
2013-05-27 10:43:00,81.0,65.0,30.07,SSW,206,3.0,-999.0,59,-99.99,,,0.00,,2013-05-27 15:43:00,
2013-05-27 10:53:00,82.0,65.0,30.07,SW,233,5.0,-999.0,57,-99.99,,,0.00,,2013-05-27 15:53:00,
2013-05-27 11:03:00,82.0,63.0,30.06,SW,224,6.0,-999.0,52,-99.99,,,0.00,,2013-05-27 16:03:00,
2013-05-27 11:12:00,82.0,63.0,30.06,SW,224,6.0,-999.0,52,-99.99,,,0.00,,2013-05-27 16:12:00,
2013-05-27 11:23:00,83.0,65.0,30.07,SW,222,7.0,-999.0,55,-99.99,,,0.00,,2013-05-27 16:23:00,
2013-05-27 11:33:00,83.0,65.0,30.07,South,172,8.0,-999.0,55,-99.99,,,0.00,,2013-05-27 16:33:00,
2013-05-27 11:42:00,83.0,65.0,30.07,South,172,8.0,-999.0,55,-99.99,,,0.00,,2013-05-27 16:42:00,
2013-05-27 11:52:00,83.0,64.0,30.06,SSW,211,7.0,-999.0,52,-99.99,,,0.00,,2013-05-27 16:52:00,
2013-05-27 12:02:00,84.0,66.0,30.06,SSE,164,7.0,-999.0,55,-99.99,,,0.00,,2013-05-27 17:02:00,
2013-05-27 12:11:00,84.0,65.0,30.05,South,186,7.0,-999.0,53,-99.99,,,0.00,,2013-05-27 17:11:00,
2013-05-27 12:22:00,84.0,65.0,30.05,South,186,7.0,-999.0,53,-99.99,,,0.00,,2013-05-27 17:22:00,
2013-05-27 12:32:00,84.0,66.0,30.05,SSE,159,6.0,-999.0,54,-99.99,,,0.00,,2013-05-27 17:32:00,
2013-05-27 12:43:00,84.0,66.0,30.05,SSE,159,6.0,-999.0,54,-99.99,,,0.00,,2013-05-27 17:43:00,
2013-05-27 12:52:00,84.0,64.0,30.04,South,181,7.0,-999.0,52,-99.99,,,0.00,,2013-05-27 17:52:00,
2013-05-27 13:02:00,83.0,64.0,30.04,SW,226,7.0,-999.0,53,-99.99,,,0.00,,2013-05-27 18:02:00,
2013-05-27 13:11:00,83.0,64.0,30.04,SW,226,7.0,-999.0,53,-99.99,,,0.00,,2013-05-27 18:11:00,
2013-05-27 13:22:00,84.0,64.0,30.03,SW,218,7.0,-999.0,52,-99.99,,,0.00,,2013-05-27 18:22:00,
2013-05-27 13:32:00,84.0,66.0,30.03,SSW,210,7.0,-999.0,55,-99.99,,,0.00,,2013-05-27 18:32:00,
2013-05-27 13:42:00,84.0,66.0,30.03,SSW,210,7.0,-999.0,55,-99.99,,,0.00,,2013-05-27 18:42:00,
2013-05-27 13:52:00,85.0,62.0,30.03,SW,228,8.0,-999.0,47,-99.99,,,0.00,,2013-05-27 18:52:00,
2013-05-27 14:01:00,85.0,64.0,30.03,SW,226,6.0,-999.0,49,-99.99,,,0.00,,2013-05-27 19:01:00,
2013-05-27 14:11:00,85.0,64.0,30.03,SW,226,6.0,-999.0,49,-99.99,,,0.00,,2013-05-27 19:11:00,
2013-05-27 14:21:00,85.0,65.0,30.02,WSW,258,7.0,-999.0,52,-99.99,,,0.00,,2013-05-27 19:21:00,
2013-05-27 14:32:00,85.0,64.0,30.02,SSW,212,8.0,-999.0,49,-99.99,,,0.00,,2013-05-27 19:32:00,
2013-05-27 14:42:00,85.0,64.0,30.02,SSW,212,8.0,-999.0,49,-99.99,,,0.00,,2013-05-27 19:42:00,
2013-05-27 14:52:00,86.0,65.0,30.02,South,181,7.0,-999.0,50,-99.99,,,0.00,,2013-05-27 19:52:00,
2013-05-27 15:01:00,85.0,64.0,30.01,SSW,194,7.0,-999.0,50,-99.99,,,0.00,,2013-05-27 20:01:00,
2013-05-27 15:11:00,85.0,64.0,30.01,SSW,194,7.0,-999.0,50,-99.99,,,0.00,,2013-05-27 20:11:00,
2013-05-27 15:22:00,85.0,64.0,30.01,South,183,6.0,-999.0,50,-99.99,,,0.00,,2013-05-27 20:22:00,
2013-05-27 15:32:00,86.0,65.0,30.01,South,187,7.0,-999.0,49,-99.99,,,0.00,,2013-05-27 20:32:00,
2013-05-27 15:42:00,86.0,65.0,30.00,SW,221,5.0,-999.0,49,-99.99,,,0.00,,2013-05-27 20:42:00,
2013-05-27 15:52:00,86.0,65.0,30.00,SW,221,5.0,-999.0,49,-99.99,,,0.00,,2013-05-27 20:52:00,
2013-05-27 16:01:00,84.0,63.0,30.00,SW,231,5.0,-999.0,49,-99.99,,,0.00,,2013-05-27 21:01:00,
2013-05-27 16:12:00,86.0,66.0,30.00,SW,214,4.0,-999.0,51,-99.99,,,0.00,,2013-05-27 21:12:00,
2013-05-27 16:21:00,86.0,66.0,30.00,SW,214,4.0,-999.0,51,-99.99,,,0.00,,2013-05-27 21:21:00,
2013-05-27 16:33:00,84.0,65.0,30.00,SW,214,6.0,-999.0,53,-99.99,,,0.00,,2013-05-27 21:33:00,
2013-05-27 16:43:00,83.0,64.0,30.00,SW,231,7.0,-999.0,52,-99.99,,,0.00,,2013-05-27 21:43:00,
2013-05-27 16:53:00,83.0,64.0,30.00,SW,231,7.0,-999.0,52,-99.99,,,0.00,,2013-05-27 21:53:00,
2013-05-27 17:02:00,84.0,64.0,30.00,South,170,5.0,-999.0,51,-99.99,,,0.00,,2013-05-27 22:02:00,
2013-05-27 17:12:00,85.0,66.0,30.00,SSW,193,3.0,-999.0,53,-99.99,,,0.00,,2013-05-27 22:12:00,
2013-05-27 17:22:00,85.0,66.0,30.00,SSW,193,3.0,-999.0,53,-99.99,,,0.00,,2013-05-27 22:22:00,
2013-05-27 17:33:00,83.0,65.0,29.99,SW,231,4.0,-999.0,54,-99.99,,,0.00,,2013-05-27 22:33:00,
2013-05-27 17:42:00,83.0,65.0,29.99,SW,231,4.0,-999.0,54,-99.99,,,0.00,,2013-05-27 22:42:00,
2013-05-27 17:53:00,84.0,64.0,29.99,SW,220,3.0,-999.0,51,-99.99,,,0.00,,2013-05-27 22:53:00,
2013-05-27 18:02:00,84.0,64.0,29.99,SSE,165,4.0,-999.0,51,-99.99,,,0.00,,2013-05-27 23:02:00,
2013-05-27 18:12:00,84.0,64.0,29.99,SSE,165,4.0,-999.0,51,-99.99,,,0.00,,2013-05-27 23:12:00,
2013-05-27 18:22:00,83.0,65.0,29.98,South,186,3.0,-999.0,54,-99.99,,,0.00,,2013-05-27 23:22:00,
2013-05-27 18:32:00,83.0,65.0,29.98,SW,219,2.0,-999.0,54,-99.99,,,0.00,,2013-05-27 23:32:00,
2013-05-27 18:42:00,83.0,65.0,29.98,SW,219,2.0,-999.0,54,-99.99,,,0.00,,2013-05-27 23:42:00,
2013-05-27 18:52:00,82.0,64.0,29.98,SSW,194,3.0,-999.0,55,-99.99,,,0.00,,2013-05-27 23:52:00,
2013-05-27 19:01:00,82.0,66.0,29.98,SSW,208,2.0,-999.0,59,-99.99,,,0.00,,2013-05-28 00:01:00,
2013-05-27 19:11:00,82.0,66.0,29.98,SSW,208,2.0,-999.0,59,-99.99,,,0.00,,2013-05-28 00:11:00,
2013-05-27 19:21:00,80.0,65.0,29.98,South,170,1.0,-999.0,60,-99.99,,,0.00,,2013-05-28 00:21:00,
2013-05-27 19:31:00,80.0,66.0,29.98,WNW,287,0.0,-999.0,62,-99.99,,,0.00,,2013-05-28 00:31:00,
2013-05-27 19:41:00,80.0,66.0,29.98,WNW,287,0.0,-999.0,62,-99.99,,,0.00,,2013-05-28 00:41:00,
2013-05-27 19:52:00,77.0,66.0,29.98,WNW,287,0.0,-999.0,69,-99.99,,,0.00,,2013-05-28 00:52:00,
2013-05-27 20:01:00,75.0,66.0,29.99,WNW,287,0.0,-999.0,74,-99.99,,,0.00,,2013-05-28 01:01:00,
2013-05-27 20:11:00,75.0,66.0,29.99,WNW,287,0.0,-999.0,74,-99.99,,,0.00,,2013-05-28 01:11:00,
2013-05-27 20:21:00,74.0,66.0,29.99,WNW,287,0.0,-999.0,76,-99.99,,,0.00,,2013-05-28 01:21:00,
2013-05-27 20:31:00,72.0,65.0,30.00,WNW,287,0.0,-999.0,79,-99.99,,,0.00,,2013-05-28 01:31:00,
2013-05-27 20:41:00,72.0,65.0,30.00,WNW,287,0.0,-999.0,79,-99.99,,,0.00,,2013-05-28 01:41:00,
2013-05-27 20:52:00,71.0,65.0,30.00,WNW,287,0.0,-999.0,81,-99.99,,,0.00,,2013-05-28 01:52:00,
2013-05-27 21:02:00,70.0,65.0,30.01,WNW,287,0.0,-999.0,84,-99.99,,,0.00,,2013-05-28 02:02:00,
2013-05-27 21:11:00,70.0,65.0,30.01,WNW,287,0.0,-999.0,84,-99.99,,,0.00,,2013-05-28 02:11:00,
2013-05-27 21:21:00,69.0,64.0,30.01,WNW,287,0.0,-999.0,85,-99.99,,,0.00,,2013-05-28 02:21:00,
2013-05-27 21:32:00,69.0,65.0,30.02,WNW,287,0.0,-999.0,86,-99.99,,,0.00,,2013-05-28 02:32:00,
2013-05-27 21:42:00,69.0,65.0,30.02,WNW,287,0.0,-999.0,86,-99.99,,,0.00,,2013-05-28 02:42:00,
2013-05-27 21:52:00,68.0,64.0,30.03,WNW,287,0.0,-999.0,87,-99.99,,,0.00,,2013-05-28 02:52:00,
2013-05-27 22:01:00,68.0,64.0,30.03,SSE,160,0.0,-999.0,87,-99.99,,,0.00,,2013-05-28 03:01:00,
2013-05-27 22:11:00,68.0,64.0,30.03,SSE,160,0.0,-999.0,87,-99.99,,,0.00,,2013-05-28 03:11:00,
2013-05-27 22:21:00,68.0,64.0,30.03,SSE,160,0.0,-999.0,87,-99.99,,,0.00,,2013-05-28 03:21:00,
2013-05-27 22:33:00,68.0,64.0,30.04,SSE,160,0.0,-999.0,87,-99.99,,,0.00,,2013-05-28 03:33:00,
2013-05-27 22:43:00,68.0,64.0,30.04,SSE,160,0.0,-999.0,87,-99.99,,,0.00,,2013-05-28 03:43:00,
2013-05-27 22:53:00,67.0,63.0,30.04,SSE,160,0.0,-999.0,88,-99.99,,,0.00,,2013-05-28 03:53:00,
2013-05-27 23:02:00,67.0,64.0,30.04,SSE,160,0.0,-999.0,89,-99.99,,,0.00,,2013-05-28 04:02:00,
2013-05-27 23:13:00,67.0,64.0,30.04,SSE,160,0.0,-999.0,89,-99.99,,,0.00,,2013-05-28 04:13:00,
2013-05-27 23:22:00,67.0,64.0,30.05,SSE,160,0.0,-999.0,89,-99.99,,,0.00,,2013-05-28 04:22:00,
2013-05-27 23:33:00,66.0,63.0,30.05,SSE,160,0.0,-999.0,89,-99.99,,,0.00,,2013-05-28 04:33:00,
2013-05-27 23:43:00,66.0,63.0,30.05,SSE,160,0.0,-999.0,89,-99.99,,,0.00,,2013-05-28 04:43:00,
2013-05-27 23:53:00,66.0,63.0,30.05,SSE,160,0.0,-999.0,89,-99.99,,,0.00,,2013-05-28 04:53:00,